CDT,Max TemperatureF,Mean TemperatureF,Min TemperatureF,Max Dew PointF,MeanDew PointF,Min DewpointF,Max Humidity, Mean Humidity, Min Humidity, Max Sea Level PressureIn, Mean Sea Level PressureIn, Min Sea Level PressureIn, Max VisibilityMiles, Mean VisibilityMiles, Min VisibilityMiles, Max Wind SpeedMPH, Mean Wind SpeedMPH, Max Gust SpeedMPH,PrecipitationIn, CloudCover, Events, WindDirDegrees
2013-8-1,81,68,54,64,56,50,93,68,42,30.07,30.00,29.88,10,10,10,17,7,20,0.00,1,Thunderstorm,259
2013-8-2,77,67,57,62,56,52,97,70,43,30.06,29.94,29.86,10,10,8,15,7,20,0.00,1,,320
2013-8-3,76,64,52,55,51,48,89,64,38,30.20,30.14,30.06,10,10,10,14,7,26,0.00,1,,337
2013-8-4,73,63,52,56,53,49,87,67,47,30.25,30.18,30.06,10,10,10,9,6,13,T,3,,113
2013-8-5,75,67,58,66,62,54,100,90,80,30.05,29.92,29.84,10,7,0,22,8,28,0.51,6,Fog-Rain-Thunderstorm,184
2013-8-6,82,71,59,67,63,58,100,77,54,29.88,29.83,29.75,10,7,0,24,7,29,0.03,2,Fog-Rain-Thunderstorm,232
2013-8-7,74,66,58,61,58,52,100,75,49,30.06,29.92,29.81,10,7,0,16,9,21,T,4,Fog-Rain,332
2013-8-8,76,65,53,59,54,49,86,67,47,30.07,30.04,30.00,10,10,10,8,4,10,0.00,4,,211
2013-8-9,76,66,55,60,55,50,90,68,46,30.15,30.06,30.01,10,10,10,18,9,26,T,3,,313
2013-8-10,75,64,52,57,54,50,89,71,53,30.22,30.17,30.12,10,10,10,13,5,16,0.03,5,,307
2013-8-11,73,67,61,66,62,57,100,87,73,30.14,30.08,30.03,10,7,0,12,4,15,0.72,7,Fog-Rain,197
2013-8-12,76,68,59,64,60,55,100,75,50,30.07,30.04,30.01,10,4,0,17,8,22,T,3,Fog-Rain,296
2013-8-13,72,63,54,54,49,46,89,67,44,30.21,30.16,30.09,10,10,10,15,6,21,0.00,2,,34
2013-8-14,75,62,49,55,51,46,93,69,44,30.24,30.19,30.14,10,10,10,12,5,15,0.00,1,,263
2013-8-15,75,63,51,54,51,47,89,66,43,30.18,30.15,30.12,10,10,10,10,6,14,0.00,1,,215
2013-8-16,78,65,52,59,54,51,93,67,40,30.23,30.20,30.17,10,10,9,9,4,,0.00,2,,254
2013-8-17,79,66,52,58,54,50,96,70,43,30.25,30.21,30.16,10,10,8,15,7,18,0.00,0,,186
2013-8-18,77,65,52,58,55,50,93,70,46,30.20,30.15,30.07,10,10,8,18,8,24,0.00,0,,185
2013-8-19,81,70,58,66,61,55,93,76,58,30.09,30.03,29.97,10,9,7,17,10,23,0.00,2,,192
2013-8-20,85,76,66,71,66,61,81,71,61,29.98,29.95,29.91,10,10,9,22,12,26,0.00,2,,183
2013-8-21,82,76,69,72,68,65,97,81,65,30.00,29.94,29.90,10,8,2,18,9,24,0.13,2,Rain-Thunderstorm,217
2013-8-22,81,74,66,70,65,59,97,73,49,30.14,30.07,30.01,10,6,2,21,6,29,0.37,4,Rain-Thunderstorm,69
2013-8-23,81,69,57,68,63,56,97,80,62,30.17,30.13,30.09,10,9,6,14,7,17,0.00,1,,154
2013-8-24,85,75,65,72,66,59,81,75,69,30.15,30.10,30.04,10,9,7,22,15,29,0.01,1,Rain,170
2013-8-25,88,81,73,74,70,67,82,72,61,30.10,30.05,30.01,10,8,6,24,16,32,0.00,0,,195
2013-8-26,91,82,73,75,72,68,87,72,56,30.04,29.98,29.91,10,10,7,20,11,25,0.00,1,,205
2013-8-27,90,83,75,76,71,68,85,71,56,29.90,29.86,29.83,10,10,9,18,10,24,0.00,0,,244
2013-8-28,86,79,71,74,72,69,93,79,65,30.04,29.99,29.90,10,8,0,12,7,18,0.00,3,Fog,75
2013-8-29,90,81,71,73,70,68,93,72,50,30.05,29.99,29.90,10,7,3,17,9,23,0.00,2,,174
2013-8-30,84,76,67,73,69,64,93,76,58,29.91,29.87,29.84,10,10,8,17,9,20,0.00,2,,356
2013-8-31,83,73,63,68,65,62,93,76,58,29.91,29.86,29.77,10,9,2,14,6,17,T,4,,116